Location: Cedar Brake
(32.2526°N, 97.8459°W)
Time: 16:28:16
(UTC+00:00)

Cosmos 2278 Rocket - Pass Details

Date: 22 April 2026
Orbit: 839 x 846 km, 71.0° (Epoch: 8 May)

Event Time Altitude Azimuth Distance (km) Brightness Sun altitude
Rises 01:42:58 0° 346° (NNW) 3,407 5.9 -8.4°
Reaches altitude 10° 01:45:31 10° 352° (N) 2,468 5.0 -8.9°
Maximum altitude 01:50:59 49° 66° (ENE) 1,074 2.5 -10.0°
Drops below altitude 10° 01:56:26 10° 141° (SE) 2,451 4.1 -11.1°
Enters shadow 01:56:26 10° 141° (SE) 2,454 4.1 -11.1°
